GFSSE_prec_cthk_000.txt.gz
RH
37 32 34 34 35 36 35 34 28 26 22 18 15 13 16 18 23 24 24 23 22 18 17 24 27 30 30 31 31 30 27 25 21 18 16 14 14 16 17 22 23 15 15
37 33 34 35 37 36 36 35 33 31 23 19 16 14 16 17 22 22 20 22 21 20 16 17 20 21 22 23 26 25 22 22 18 17 13 14 14 15 17 25 21 20 22
37 35 35 37 38 38 38 36 36 33 28 23 16 20 18 19 19 21 20 24 20 17 15 14 15 17 19 20 20 20 20 20 20 16 13 13 14 16 18 21 19 18 19
34 33 35 40 42 41 39 37 35 33 30 30 29 26 24 25 27 27 27 21 18 16 15 15 15 15 15 17 17 18 18 18 17 16 15 12 13 16 18 22 20 18 18
34 34 37 42 45 43 39 38 36 33 33 31 30 34 33 33 30 26 28 22 20 18 15 14 14 16 16 15 15 15 13 13 12 11 11 12 13 15 17 20 21 20 18
35 37 40 44 45 45 40 40 37 34 33 32 30 33 34 42 39 34 30 22 20 19 14 14 14 14 15 16 15 15 15 13 12 12 10 10 12 15 19 22 21 17 17
37 39 44 46 46 45 42 40 39 37 33 30 31 31 32 36 42 41 39 31 24 17 15 15 16 16 15 15 15 16 17 18 19 19 20 18 17 17 18 23 23 22 19
39 42 46 47 48 46 43 41 40 37 36 32 28 29 28 30 36 39 42 38 31 26 25 24 24 23 22 23 23 23 24 25 26 26 26 26 26 24 25 25 30 28 26
41 41 46 45 46 45 42 42 41 41 39 33 27 26 24 24 27 31 32 31 31 31 32 32 32 32 32 32 32 32 32 31 30 30 30 30 30 30 29 29 30 33 33
45 42 44 47 47 44 41 42 44 40 36 33 30 26 25 25 26 24 23 24 26 28 30 32 34 36 37 36 36 36 36 35 35 35 36 37 37 38 37 36 35 37 37
47 43 39 48 49 45 44 43 44 39 35 34 31 27 25 26 27 26 26 27 27 28 27 28 29 30 32 34 36 37 38 38 37 36 36 36 37 37 36 35 38 37 36
43 42 42 44 50 48 46 45 45 42 37 35 33 31 30 29 30 32 33 34 34 33 34 36 37 37 36 35 34 33 31 30 28 30 29 31 31 32 32 38 38 40 41
37 41 46 47 49 50 47 46 45 43 40 37 38 35 33 33 34 36 37 39 38 39 40 41 39 39 38 35 33 30 28 26 27 27 28 29 30 31 37 38 42 44 45
39 40 45 52 52 54 51 48 46 46 43 38 39 38 36 36 38 40 40 42 43 43 43 43 42 41 38 33 30 30 29 29 29 31 33 33 31 33 35 38 36 38 40
37 40 42 50 55 56 55 51 46 46 44 42 43 42 40 40 42 44 45 45 46 46 44 42 40 36 31 28 28 30 31 31 30 31 30 28 25 24 25 26 29 30 31
34 38 41 49 56 58 56 52 48 46 46 46 45 44 44 44 45 44 43 48 48 44 42 38 30 26 27 30 31 30 26 23 21 20 20 20 20 23 27 29 30 31 31
29 33 40 49 54 57 55 52 49 49 48 47 46 47 45 45 45 44 50 50 47 40 33 30 30 30 29 25 20 16 15 15 16 16 18 21 23 24 26 28 29 32 32
24 30 38 46 51 55 52 50 50 48 50 48 48 46 44 44 47 51 52 42 35 33 33 33 30 25 19 16 15 16 17 17 18 20 20 22 23 24 25 26 28 27 28
23 28 34 45 48 50 50 51 49 49 47 48 47 48 48 51 52 47 39 36 35 35 33 28 21 16 15 17 18 18 17 18 18 16 18 19 18 18 20 22 22 22 22
28 28 33 39 43 44 48 48 48 47 47 48 49 50 51 46 40 39 37 38 38 32 25 20 16 17 16 17 18 16 15 16 14 17 13 13 12 13 13 13 12 12 12
30 27 28 34 39 43 47 46 44 46 49 50 49 41 38 39 37 40 40 37 31 25 19 17 16 16 17 17 16 15 14 14 15 17 14 14 14 14 13 13 12 12 12
32 31 29 36 42 46 45 46 48 49 49 46 38 35 35 40 41 39 37 32 27 22 19 17 19 19 19 18 17 17 16 16 18 16 18 16 17 16 15 14 14 13 12
33 36 38 41 42 45 48 48 49 47 41 37 34 38 41 41 40 37 33 28 24 22 22 23 21 20 20 20 19 18 20 21 19 19 17 18 16 16 15 14 12 12 12
36 39 41 42 46 48 45 45 43 38 36 40 42 43 42 40 38 35 31 27 26 26 24 23 23 22 22 21 20 19 19 21 22 20 18 16 17 15 13 12 11 11 10
39 40 42 44 46 45 41 40 37 39 42 45 47 46 41 37 35 33 32 32 31 27 25 25 24 24 23 22 21 20 21 21 21 21 19 17 14 11 10 10 10 9 9
42 43 43 43 44 41 38 38 41 44 46 49 47 42 39 38 37 36 38 36 32 28 26 26 25 24 23 22 22 22 22 21 19 18 16 15 14 13 14 12 10 10 13

GFSSE_prec_cthk_003.txt.gz
RH
39 36 37 37 36 36 35 31 31 29 24 19 15 14 13 14 20 24 24 23 23 18 18 20 22 24 30 32 28 27 25 23 23 21 18 15 14 15 17 19 18 23 16
38 35 37 39 39 37 35 34 34 34 31 25 17 20 19 15 18 21 20 20 21 20 16 16 20 21 22 26 25 24 22 20 19 20 15 14 15 15 15 23 22 21 20
37 35 36 39 41 38 36 36 34 35 32 29 26 25 22 22 20 21 21 21 20 18 16 15 16 17 19 20 20 20 20 19 19 18 17 15 15 16 16 22 22 19 22
34 32 34 38 40 38 39 38 37 34 30 29 29 34 37 32 31 30 28 22 20 18 15 15 15 15 15 16 17 16 17 16 15 15 15 14 14 16 17 22 23 21 20
33 33 35 39 40 41 40 38 37 33 29 29 29 33 40 42 39 33 26 22 20 18 14 15 15 16 16 16 16 16 15 14 12 12 11 12 13 14 15 20 23 24 25
35 35 38 42 44 47 41 39 39 34 30 28 26 30 35 42 42 41 39 30 23 18 15 15 16 16 16 16 16 16 16 16 16 17 17 17 16 15 18 20 22 22 22
35 35 40 45 46 46 44 41 40 36 32 29 28 29 31 38 41 42 42 35 32 27 23 21 20 19 18 18 19 19 21 22 23 24 25 26 25 23 22 21 26 25 25
38 37 42 45 46 46 45 44 41 38 34 32 30 28 28 32 35 38 40 39 34 31 31 31 31 31 31 31 30 30 31 31 32 32 32 32 32 31 30 29 28 31 32
41 41 43 45 46 46 45 44 42 41 38 35 31 28 27 28 30 29 27 26 25 25 27 29 32 34 36 37 37 37 37 37 37 36 36 36 35 35 35 34 33 33 34
45 47 46 44 45 47 46 45 44 46 42 39 35 30 29 28 30 30 30 28 28 28 29 30 30 31 33 35 36 38 38 38 38 37 37 38 39 39 38 40 40 40 40
48 49 49 46 42 49 49 46 45 44 43 39 36 32 30 30 29 29 30 32 34 36 37 38 38 38 40 39 37 36 35 33 32 30 31 32 34 34 34 36 36 38 38
48 48 48 44 42 46 49 48 46 44 44 41 36 34 32 31 31 32 33 34 37 39 41 42 44 43 41 39 38 35 31 28 27 27 26 27 28 28 28 31 36 42 42
43 45 48 48 45 49 49 51 48 47 44 43 38 38 37 33 33 37 37 38 41 43 47 45 42 40 39 35 32 30 28 28 28 29 30 31 31 30 29 32 37 41 43
36 41 45 49 48 50 53 52 54 50 45 43 42 42 41 39 38 39 40 42 43 43 45 45 42 41 39 36 32 29 29 30 31 31 31 31 31 29 25 26 27 29 29
34 39 42 47 51 51 57 58 58 54 49 46 46 45 44 44 44 43 44 45 43 47 47 46 43 37 30 27 28 28 27 25 23 22 22 22 23 23 22 22 24 27 28
32 34 39 46 51 53 59 64 64 59 53 51 47 47 48 48 47 46 46 44 45 48 47 40 32 30 32 31 27 21 18 15 14 15 16 18 20 21 22 25 26 27 29
34 34 36 43 47 52 57 66 67 60 56 51 50 50 52 48 48 48 47 47 50 44 34 33 34 34 30 22 16 14 14 16 17 18 20 21 22 23 24 24 26 27 28
36 31 30 38 43 49 55 63 67 61 56 53 52 53 51 48 51 51 51 46 37 35 36 36 32 26 18 16 16 14 15 17 19 21 21 21 21 22 23 24 25 26 27
38 35 28 31 38 45 53 61 63 63 58 54 52 52 50 50 52 52 42 36 36 37 36 31 25 18 16 16 15 14 17 18 20 18 18 19 19 18 18 18 18 18 17
35 38 34 31 37 43 49 56 59 60 57 55 54 53 53 52 41 35 37 39 39 36 32 24 17 15 15 15 15 16 18 19 19 17 19 15 15 14 15 15 14 14 14
35 40 40 37 36 42 46 52 59 58 55 53 54 54 50 38 33 36 40 39 37 31 21 16 16 17 17 20 20 19 18 18 16 18 19 17 17 16 17 16 15 15 15
35 35 38 41 36 42 48 54 55 55 54 56 54 47 38 35 40 41 42 38 30 23 19 18 18 21 23 23 22 20 18 18 19 21 19 19 18 18 17 16 16 15 15
37 34 33 36 40 45 53 54 53 55 55 52 44 38 40 43 45 46 42 33 26 22 21 19 23 25 24 23 21 21 21 21 20 20 20 20 19 18 17 16 14 12 11
41 36 35 38 49 53 51 51 51 52 51 44 41 41 44 48 48 43 36 32 29 26 23 25 26 25 23 22 22 22 23 23 22 21 20 19 18 16 13 11 10 10 10
44 40 43 46 48 51 51 49 50 51 45 41 42 46 49 50 46 40 36 34 32 30 31 29 26 25 24 24 24 24 24 23 24 24 21 17 14 12 11 10 10 9 9
48 43 47 48 49 49 46 47 47 44 41 43 46 50 52 51 47 42 40 38 37 38 35 29 26 26 25 26 26 25 25 26 25 22 20 17 15 13 12 11 11 11 10

GFSSE_prec_cthk_006.txt.gz
RH
37 36 39 37 36 35 34 31 30 27 27 22 17 16 19 19 22 23 25 23 22 20 16 17 19 24 31 31 32 29 27 24 23 19 17 14 13 14 16 20 19 17 20
38 36 41 40 39 37 35 33 32 32 32 27 23 26 20 18 18 22 22 20 19 17 15 14 19 20 23 29 28 25 24 23 20 18 18 15 16 16 16 18 23 20 21
40 37 41 39 38 37 35 35 33 33 32 29 27 32 30 24 22 20 18 20 20 19 16 14 14 16 17 20 21 20 19 19 17 18 18 16 16 16 17 18 23 21 22
41 38 35 40 38 38 38 38 36 34 30 28 28 31 36 39 35 31 28 20 19 17 15 15 15 14 14 15 16 16 15 15 15 15 15 15 14 14 14 18 21 22 21
41 37 37 42 40 39 40 40 38 34 30 28 29 33 40 42 40 36 28 24 21 16 13 14 14 14 15 15 16 16 16 16 15 14 13 12 11 13 15 21 25 22 21
44 41 38 40 42 44 44 42 39 36 32 29 27 31 37 39 41 42 41 34 30 23 20 18 16 16 16 17 17 17 17 17 17 18 19 19 19 19 17 19 21 23 22
44 42 39 42 45 47 46 44 42 37 33 31 29 32 37 39 39 41 40 36 34 32 30 30 30 29 29 28 27 26 26 26 27 28 29 30 29 27 26 24 24 29 28
41 40 40 43 47 47 47 47 45 41 37 33 33 33 34 37 37 38 36 33 32 29 29 29 30 31 33 34 36 37 38 38 38 37 36 35 34 33 32 29 28 27 27
46 47 44 45 47 49 49 49 48 44 42 38 35 34 33 33 34 35 33 31 30 29 29 30 31 31 31 32 33 34 35 36 36 37 38 39 39 37 35 35 36 36 35
47 49 47 50 49 46 49 51 50 47 46 43 37 36 32 32 34 34 34 33 33 34 36 38 38 38 37 36 37 37 38 37 36 35 34 34 35 36 37 39 39 38 36
51 54 53 57 54 49 48 52 54 49 47 46 43 36 34 33 34 34 34 34 35 37 38 39 42 43 42 40 39 38 37 35 31 29 30 29 29 30 32 32 37 38 44
50 53 54 55 54 49 49 49 56 55 50 44 44 39 34 34 34 34 35 36 38 40 43 44 43 43 41 39 37 34 32 29 28 28 28 29 31 31 31 31 33 37 39
49 51 54 54 55 53 51 51 52 59 55 49 44 40 38 36 37 37 38 40 43 44 48 44 40 41 40 39 36 34 30 28 27 28 30 31 33 34 33 31 29 31 33
46 47 49 52 56 55 54 54 58 58 61 55 47 44 44 43 43 43 42 45 45 48 48 42 43 42 39 34 30 29 29 29 26 24 23 22 23 24 25 24 26 26 26
37 41 42 45 51 56 55 56 61 63 61 60 53 49 47 47 48 47 47 48 49 47 45 44 44 36 30 30 31 31 27 21 18 16 15 15 17 19 21 23 24 25 26
35 37 41 41 47 51 56 58 61 68 69 67 58 54 52 51 52 52 52 50 49 47 45 39 32 32 34 32 28 22 16 15 15 15 16 19 21 23 23 24 26 27 28
34 36 39 42 45 49 55 60 63 69 73 71 64 58 57 54 56 52 51 50 51 43 35 33 36 34 30 24 19 17 17 17 17 18 20 21 23 25 25 26 27 27 28
34 34 38 37 40 49 54 58 63 70 74 71 66 62 57 56 55 54 54 52 40 36 37 36 33 29 23 19 17 15 14 14 16 19 21 22 23 22 22 22 23 23 23
36 34 37 38 35 40 49 54 58 68 73 69 66 60 55 54 52 54 50 36 33 38 37 34 30 22 16 14 14 14 15 17 20 22 21 19 19 17 16 17 17 17 17
37 37 39 40 40 36 41 48 56 63 67 68 65 60 56 55 54 43 36 33 36 37 34 28 20 15 14 17 17 18 20 20 21 21 18 19 18 18 18 18 18 17 17
38 39 37 38 44 40 39 45 55 59 65 69 63 59 58 57 43 37 37 37 40 36 28 20 14 16 18 19 21 22 21 21 20 18 20 23 21 20 19 19 18 18 17
40 38 38 41 47 46 45 49 55 57 62 61 61 59 57 46 39 41 44 44 39 33 24 17 17 20 21 22 23 23 21 20 21 22 21 22 21 21 21 21 20 19 17
42 39 39 41 45 50 51 50 54 59 59 61 60 58 47 43 43 46 46 43 40 33 25 21 22 23 23 23 24 23 23 23 23 22 23 24 23 23 23 22 19 16 13
42 42 41 42 42 48 52 54 54 53 54 58 57 49 45 45 47 47 46 46 41 34 29 27 27 25 25 26 26 26 26 25 24 23 23 24 25 23 20 17 14 12 11
43 44 44 42 43 48 55 61 58 54 54 55 49 46 47 48 50 51 52 50 44 38 35 32 31 30 28 28 28 27 26 26 27 27 26 25 23 20 16 14 12 12 12
44 47 47 44 49 56 58 55 55 51 52 50 46 46 48 52 54 55 54 50 48 45 40 36 34 32 31 31 30 27 27 28 28 29 28 25 22 18 15 13 13 14 15

GFSSE_prec_cthk_009.txt.gz
RH
36 37 41 40 36 35 33 31 29 28 27 24 20 17 20 26 25 26 27 26 25 22 19 16 18 25 31 30 32 31 26 23 22 21 16 13 13 12 13 22 22 22 18
40 40 44 41 38 36 35 32 31 30 30 27 24 29 27 28 28 25 27 25 21 18 15 14 18 20 26 30 28 24 21 20 20 17 16 14 14 15 16 18 23 22 20
41 42 45 43 37 35 35 34 33 31 30 26 31 33 29 25 23 21 20 18 18 16 16 15 14 16 17 23 23 22 20 18 16 15 15 16 15 15 15 16 21 21 18
43 41 43 44 39 35 36 37 36 33 28 25 26 32 34 40 38 31 25 20 18 15 14 15 15 14 14 15 17 16 15 15 14 14 14 14 14 14 13 18 17 19 18
46 45 47 47 40 38 38 39 38 34 31 28 29 33 39 40 37 32 30 25 22 17 16 15 14 14 15 15 15 15 16 16 15 15 15 13 11 11 11 14 21 23 23
58 52 48 52 47 41 42 43 41 36 34 32 31 33 39 38 39 40 37 34 32 28 26 25 24 23 22 21 20 19 22 23 19 20 20 22 22 22 21 19 19 21 24
51 49 50 53 47 45 44 45 44 40 36 33 33 36 40 40 39 44 37 35 34 32 30 30 29 29 29 30 31 32 32 34 32 33 33 33 33 32 31 29 27 24 28
46 45 45 46 47 49 48 47 46 44 40 37 35 37 38 39 39 39 35 30 30 27 26 27 28 30 30 31 31 31 31 32 33 33 33 33 33 33 34 35 35 33 32
45 46 46 49 50 53 49 49 48 46 43 39 38 38 39 39 40 39 34 34 34 32 33 36 37 38 37 37 37 35 36 34 36 36 34 33 33 32 32 32 34 38 36
48 51 51 51 51 54 51 49 50 48 47 42 40 37 37 37 38 38 37 36 34 34 37 37 38 42 42 42 42 39 39 36 35 35 31 30 29 29 31 34 37 36 45
48 55 57 55 55 56 55 52 49 51 52 48 42 40 37 36 37 37 37 35 36 37 39 40 41 42 41 40 39 38 36 34 29 28 27 27 27 29 30 32 34 36 37
48 55 61 62 58 61 54 50 49 50 57 54 48 42 39 36 37 37 35 36 40 40 41 43 44 42 39 39 37 36 36 32 28 28 27 27 27 29 31 32 32 31 33
49 53 58 62 61 62 58 55 53 51 53 58 56 47 41 39 38 40 40 41 43 43 46 47 44 41 40 37 35 31 29 28 29 30 28 25 24 24 26 27 28 27 27
48 50 53 58 61 64 61 56 56 54 58 59 60 53 48 45 43 45 47 47 46 45 47 47 45 43 38 32 31 30 30 30 27 22 18 17 16 17 22 24 24 23 25
44 49 53 55 58 63 64 58 58 57 59 65 62 61 55 52 50 50 51 50 49 46 46 48 42 35 32 32 32 29 25 21 18 16 15 16 17 18 20 22 23 25 27
36 42 47 51 51 52 55 58 60 60 62 64 67 65 61 59 56 54 54 54 50 48 49 41 33 33 34 31 27 23 20 18 17 16 16 18 20 21 22 24 25 26 27
36 35 35 40 43 46 50 56 60 62 62 64 71 72 66 64 61 57 54 52 52 49 38 35 37 36 33 27 23 20 17 14 15 16 17 19 21 23 24 25 26 27 27
38 36 35 36 39 45 51 54 59 61 65 70 73 75 70 67 62 57 54 53 47 37 34 36 35 34 28 23 19 15 13 15 17 18 21 22 23 22 21 21 20 19 19
40 39 37 35 37 40 47 54 59 62 65 67 69 73 69 67 61 54 56 45 37 36 36 33 30 26 21 18 15 14 17 18 19 22 23 23 21 19 18 18 18 19 19
38 41 39 37 37 41 45 49 55 59 63 64 68 74 71 66 59 56 45 38 38 40 34 29 25 22 19 16 15 18 20 19 21 24 25 22 20 22 22 20 20 19 19
37 41 41 40 40 41 47 50 52 50 56 63 66 72 72 66 59 45 40 41 44 41 36 31 26 23 17 16 18 21 21 21 22 23 23 23 22 23 23 21 21 21 21
38 40 41 43 45 43 45 49 53 51 55 62 66 72 71 63 52 41 44 46 44 42 39 36 32 25 19 19 21 23 24 24 25 24 24 24 23 23 24 24 24 23 23
37 39 40 45 45 47 50 53 57 58 56 60 66 69 64 59 45 45 48 48 47 46 45 42 35 28 22 21 23 25 25 26 25 25 25 25 25 25 25 26 26 25 23
36 40 42 45 47 49 54 55 56 57 54 57 61 64 62 50 47 49 51 54 53 51 50 47 41 32 24 24 25 26 27 27 27 26 25 25 25 26 26 26 25 22 19
38 43 44 48 50 54 56 55 55 58 61 55 59 59 49 46 48 52 55 56 55 54 50 48 46 34 27 24 26 27 28 28 28 28 27 26 27 26 27 25 23 20 18
42 45 46 48 52 53 55 57 59 60 61 58 58 51 46 46 50 54 56 58 58 57 52 49 46 37 27 25 27 27 27 28 28 29 32 32 30 28 25 23 21 19 18

GFSSE_prec_cthk_012.txt.gz
RH
35 38 39 38 34 32 30 29 27 27 26 25 22 23 27 27 24 25 26 27 26 24 19 15 18 30 25 37 39 30 26 24 22 20 17 14 12 13 13 15 20 22 22
38 42 44 42 39 33 31 30 30 29 28 25 26 28 29 32 30 27 26 25 21 18 15 13 19 27 30 31 30 30 23 21 20 17 15 14 13 13 14 15 19 22 18
42 47 46 44 40 35 32 31 31 30 27 24 31 30 31 33 31 25 21 17 16 16 15 15 16 19 25 26 24 23 22 19 16 14 14 20 16 14 14 14 19 18 15
46 50 49 47 42 40 34 34 33 33 29 25 29 30 32 35 32 24 20 18 16 14 14 15 16 15 16 18 19 17 15 14 14 14 19 19 18 14 13 13 15 17 17
48 51 51 50 48 44 38 37 36 34 31 29 29 31 35 35 33 31 29 24 21 17 16 15 15 15 15 15 15 16 20 19 16 19 21 17 14 15 12 14 20 22 23
60 54 53 55 51 48 42 40 38 35 33 31 34 33 37 36 37 36 34 31 29 26 26 25 25 25 25 25 25 25 28 30 25 29 29 29 26 25 24 23 23 25 27
52 55 56 56 53 48 43 42 42 39 37 34 38 36 40 38 39 40 33 34 33 31 30 28 27 27 28 27 28 28 28 30 31 37 36 36 36 34 32 32 31 30 29
51 55 54 53 50 48 46 42 43 41 39 37 39 39 39 41 39 40 34 30 29 26 26 28 30 33 33 33 34 33 32 32 34 35 35 35 33 32 31 32 35 34 32
52 51 53 54 52 49 49 45 45 43 41 40 41 41 40 42 42 45 39 34 34 32 32 34 36 37 37 38 38 38 37 37 37 38 36 38 35 33 33 35 38 39 44
50 51 54 57 57 54 51 49 47 46 43 41 41 41 41 41 40 40 38 36 35 34 35 36 38 40 42 42 39 38 37 36 36 33 31 29 28 26 26 29 31 34 36
48 49 54 64 61 59 56 56 54 47 46 47 45 41 39 40 39 39 38 36 36 37 38 40 40 43 43 39 37 37 37 35 31 30 28 27 27 27 29 30 31 32 33
47 48 49 58 63 62 59 61 57 51 49 50 52 47 42 39 40 39 38 37 38 41 42 43 43 44 43 39 38 34 31 30 28 28 27 29 29 27 27 27 28 29 28
48 52 51 56 62 74 70 67 62 57 57 56 51 51 47 43 41 40 41 42 45 44 45 46 45 44 44 38 33 31 30 30 30 31 29 27 22 19 22 24 22 23 25
47 49 50 53 61 61 69 61 67 60 60 59 58 55 52 49 45 44 48 48 49 48 49 48 46 44 41 31 31 32 30 28 25 22 20 17 17 18 20 21 21 24 23
43 45 47 50 55 57 70 63 66 63 64 61 59 60 58 56 54 55 52 50 50 52 52 48 46 37 32 31 31 29 26 23 21 20 20 17 17 18 19 20 22 22 23
40 42 46 47 51 53 54 60 66 68 62 63 63 55 61 63 60 56 56 55 52 53 53 45 36 34 34 33 30 27 23 21 19 17 16 17 19 20 21 22 23 23 24
40 41 42 45 47 50 54 60 59 60 62 66 63 61 61 68 67 63 64 59 54 55 44 36 34 34 33 29 27 24 21 19 16 15 18 20 21 22 23 24 23 23 24
42 41 39 40 43 45 48 54 56 57 60 63 64 64 64 70 73 69 66 58 57 44 37 35 35 31 26 21 23 21 19 17 16 18 21 21 21 21 20 21 20 18 18
40 42 42 40 38 39 46 50 53 56 58 62 62 64 67 70 72 70 66 61 45 37 37 37 33 27 21 20 20 20 19 18 20 21 22 22 23 23 22 21 20 20 19
34 37 42 42 41 40 47 51 54 56 57 61 59 62 66 70 71 69 66 51 40 39 41 36 33 29 24 22 21 21 19 20 21 23 24 24 22 22 22 23 23 22 19
31 34 35 41 43 43 46 47 53 55 57 54 55 63 68 67 68 68 58 44 42 44 41 40 38 33 29 26 24 24 22 20 22 26 24 23 24 23 22 22 21 21 21
30 33 34 35 42 45 46 51 54 60 62 58 56 57 61 64 66 67 50 46 46 46 48 48 46 42 36 29 24 24 25 24 25 25 25 25 26 25 25 24 23 22 23
31 31 33 34 39 44 50 56 56 57 60 61 64 59 59 64 65 56 49 50 49 53 54 52 49 47 42 34 27 25 24 24 25 26 29 29 29 28 26 24 23 25 26
31 31 32 36 37 43 50 54 55 55 60 62 68 62 62 62 61 49 50 53 54 55 56 55 53 49 44 36 29 25 22 23 25 26 28 29 29 28 26 25 27 27 25
32 33 32 37 39 42 48 55 62 64 64 63 66 67 60 59 54 48 51 54 56 56 58 58 57 54 49 40 30 24 24 25 26 28 28 28 28 27 28 32 31 28 27
32 34 37 39 43 43 46 56 65 65 60 62 63 65 63 58 49 50 53 56 57 58 60 60 60 57 53 44 34 29 28 28 30 31 30 30 32 34 34 29 29 28 26

GFSSE_prec_cthk_018.txt.gz
RH
37 31 31 32 33 30 29 25 24 24 25 26 28 32 33 31 29 25 22 21 22 22 18 13 15 25 39 40 41 35 29 26 24 23 20 17 15 13 13 13 17 22 25
37 34 33 33 33 32 31 27 25 24 23 22 21 25 32 34 32 28 24 20 15 13 12 11 17 25 29 31 33 31 26 21 18 15 14 17 17 15 14 15 17 21 22
40 37 35 34 33 34 35 33 28 26 24 29 28 24 34 38 36 30 21 14 11 11 12 13 15 23 24 25 27 22 20 15 13 16 18 20 20 19 16 15 16 18 18
46 41 38 35 34 36 35 35 31 26 25 28 28 28 28 31 32 31 20 16 14 13 12 12 13 13 15 17 18 17 14 14 18 21 21 21 21 21 19 14 14 15 17
48 43 40 38 39 38 37 37 34 27 27 30 29 29 27 24 23 24 24 22 18 16 16 15 14 13 13 14 15 16 17 19 23 25 25 26 23 24 22 21 19 20 21
47 49 47 47 48 45 38 37 34 28 27 32 32 31 29 27 25 25 26 27 26 24 23 21 21 22 23 24 24 25 26 27 29 33 36 37 34 36 35 34 34 35 33
52 53 54 51 55 50 42 39 34 30 30 33 35 35 36 37 36 28 25 26 28 28 28 29 29 30 29 30 30 31 30 31 33 37 40 35 34 32 30 30 32 32 33
52 56 57 53 54 51 44 42 38 33 32 35 37 38 38 40 42 36 30 27 25 25 27 29 30 32 34 34 34 33 33 32 34 36 40 35 35 32 29 32 34 35 36
55 53 51 51 54 50 47 42 42 37 34 35 37 40 40 42 43 41 38 35 31 29 30 32 35 35 36 36 35 33 32 32 31 30 31 31 30 26 25 26 25 28 30
53 50 50 48 48 49 46 43 42 42 37 37 37 41 45 44 46 44 40 36 34 33 34 35 36 36 37 35 34 33 31 30 28 28 27 28 28 26 26 25 27 28 28
54 52 48 48 49 49 46 45 48 44 40 40 41 41 44 47 46 44 41 37 35 33 35 37 37 39 38 36 36 32 29 28 26 27 26 26 26 27 28 27 28 28 29
53 54 54 51 49 49 49 46 51 49 43 41 45 40 37 45 48 46 45 43 39 37 37 38 39 39 40 39 37 31 28 28 26 27 28 27 25 23 29 27 26 24 22
54 55 55 55 53 50 48 49 50 51 50 46 48 49 46 46 42 46 49 45 45 45 44 42 40 41 42 38 32 29 28 26 25 25 26 24 24 30 29 27 22 19 21
52 54 54 57 57 54 53 52 49 50 55 61 59 59 57 49 46 42 44 51 56 53 51 49 46 45 40 34 31 28 27 25 26 25 23 23 22 23 22 20 17 19 19
47 47 49 51 54 55 54 54 56 56 58 67 66 60 59 55 51 51 50 50 53 53 52 50 49 43 35 33 31 28 25 24 24 25 24 23 22 22 20 18 19 20 21
41 42 46 48 48 52 53 54 56 60 60 64 66 70 62 57 57 55 53 54 50 53 55 52 47 40 35 32 29 27 24 23 22 22 22 22 22 22 20 20 19 20 20
33 38 43 45 45 48 51 54 57 59 60 64 66 67 65 66 67 58 58 57 57 55 58 54 46 42 36 31 28 25 23 22 21 21 20 22 22 22 21 20 18 17 18
34 35 38 42 45 46 47 52 55 58 63 61 64 65 65 62 62 59 59 60 61 60 58 50 47 44 38 31 27 24 22 22 23 22 22 24 25 24 23 23 21 18 19
35 36 38 38 39 42 43 45 51 54 60 61 63 67 64 64 63 58 59 62 62 61 52 49 45 45 41 34 30 28 26 24 24 24 25 25 25 25 25 23 23 21 20
29 34 36 38 38 39 41 45 49 52 58 57 58 60 62 64 59 58 58 60 61 55 49 48 44 46 46 42 35 34 32 30 29 27 26 26 25 25 25 24 24 22 23
24 31 35 35 36 37 38 39 43 48 56 57 55 54 55 59 60 61 59 60 57 45 45 45 44 47 49 46 41 38 37 35 33 31 30 29 26 26 25 25 23 22 23
26 25 31 35 34 33 38 39 42 45 49 54 56 60 63 61 61 63 64 64 56 44 41 41 44 47 52 51 49 46 43 40 38 35 30 27 26 26 25 25 24 24 23
29 29 29 33 35 34 35 44 45 45 46 47 52 60 64 65 65 68 68 67 56 46 42 43 47 50 53 54 54 52 47 43 39 36 35 32 31 30 28 27 27 26 24
24 29 34 35 35 36 37 40 38 39 40 42 47 55 63 67 69 68 69 66 60 50 46 47 48 52 55 56 55 53 48 45 41 39 37 33 30 30 30 29 29 27 26
23 27 29 36 39 39 37 42 39 41 42 44 49 56 64 68 69 71 73 68 63 51 53 52 51 53 55 56 56 53 50 47 43 40 37 35 34 33 31 30 29 29 27
22 24 30 33 40 45 45 44 40 40 43 45 49 57 65 68 70 73 72 67 64 51 53 55 57 60 60 60 58 54 52 48 45 40 37 35 34 32 31 30 27 27 26

GFSSE_prec_cthk_021.txt.gz
RH
42 38 31 27 28 30 30 27 24 24 24 26 28 31 32 32 29 26 21 19 17 18 16 12 21 32 38 40 36 28 26 21 20 20 18 16 15 13 12 12 16 19 22
42 38 31 30 28 27 29 29 25 22 22 23 26 29 30 31 30 25 21 14 11 10 10 11 21 26 30 32 28 23 18 15 13 14 15 16 16 15 13 14 17 19 19
43 42 35 31 30 28 30 30 29 25 21 23 22 26 32 34 32 28 16 12 10 11 11 13 19 23 25 24 23 19 15 13 16 18 18 17 17 18 15 14 14 16 17
46 44 39 34 32 31 33 30 27 25 24 28 27 28 32 31 31 27 18 15 13 12 12 12 12 14 15 15 14 13 14 16 20 21 21 20 20 21 20 18 15 15 16
43 40 38 38 37 36 37 31 28 27 27 27 29 29 29 26 25 20 21 20 18 16 14 14 14 13 14 14 15 17 19 24 26 26 28 29 27 27 26 25 24 24 24
40 38 38 40 43 45 42 37 30 28 27 28 28 29 27 26 25 22 22 22 23 23 23 21 20 21 23 26 27 28 28 30 33 33 35 37 32 34 34 32 34 32 31
42 41 41 42 47 48 46 40 34 29 29 30 31 31 32 31 29 27 23 20 21 24 26 27 28 29 30 28 28 29 30 31 33 34 36 34 32 31 29 29 32 38 40
44 47 46 46 49 48 45 41 35 31 33 33 32 34 37 38 35 31 29 27 25 24 25 27 30 30 30 32 33 33 32 34 36 34 32 33 32 30 26 31 32 32 32
48 50 49 47 47 45 44 41 36 34 35 36 35 36 39 41 38 34 32 30 30 30 30 30 30 31 34 34 33 33 33 33 32 30 28 27 27 27 25 26 27 27 27
50 51 49 50 46 46 44 42 39 39 38 38 39 39 40 44 46 42 40 35 32 30 32 33 34 35 36 35 34 32 32 31 29 28 28 27 27 26 25 27 27 31 33
47 50 49 48 46 44 45 43 41 40 41 43 40 42 43 40 44 47 43 40 39 37 37 36 36 36 38 38 37 34 30 29 28 26 27 26 28 27 29 31 30 31 31
42 45 51 51 47 47 47 44 41 39 40 46 44 43 47 47 42 41 44 45 42 42 43 43 40 39 38 38 36 31 30 28 27 26 26 25 25 30 30 29 29 27 27
45 45 48 52 53 52 48 47 46 41 40 44 44 46 46 52 49 45 43 40 40 46 48 47 45 46 44 38 33 31 29 28 27 26 25 24 25 30 31 30 26 25 24
41 45 44 47 53 53 51 50 47 46 42 44 45 47 56 56 54 49 52 50 43 44 45 49 51 49 45 38 33 31 30 28 26 25 25 23 23 26 25 25 24 24 21
40 40 45 46 45 47 49 50 48 48 47 51 50 53 58 60 53 52 54 53 48 48 47 46 51 50 41 36 33 29 27 26 26 25 23 23 22 23 23 25 24 23 21
36 39 41 43 44 42 42 46 45 49 52 55 55 57 57 60 60 58 55 62 54 50 49 49 50 45 41 37 35 31 27 25 25 23 23 22 21 21 21 23 23 21 20
33 38 39 39 41 43 41 43 46 49 52 55 57 57 56 57 57 58 55 57 54 50 52 53 47 43 40 37 35 33 28 26 25 24 23 23 22 21 23 23 23 23 22
30 33 35 35 35 40 40 44 47 51 53 55 59 61 61 58 61 61 60 61 56 54 55 54 45 43 40 37 36 36 33 28 26 25 25 25 24 24 25 25 24 23 23
28 29 33 34 32 34 39 41 47 50 55 55 59 60 60 58 63 62 63 62 57 55 55 47 44 42 41 39 37 40 39 32 30 30 29 29 27 26 25 24 24 24 24
25 30 33 36 34 33 34 40 44 49 54 57 57 57 58 58 59 60 60 58 59 58 56 46 43 40 40 40 37 39 41 39 34 34 33 32 33 31 29 26 25 25 25
23 27 31 35 35 36 39 39 41 45 49 52 53 55 55 58 57 58 58 58 61 61 55 49 45 42 40 39 40 41 44 45 43 43 41 40 37 34 31 28 26 25 25
29 28 29 33 36 36 36 36 39 43 49 53 57 56 53 55 58 61 61 60 61 65 55 51 49 46 42 42 44 45 46 47 46 45 43 42 39 36 33 32 30 29 27
25 28 31 32 35 37 37 43 45 47 50 55 57 56 55 52 56 59 61 62 64 66 55 52 52 50 47 46 47 48 48 47 46 44 43 41 39 36 34 33 30 28 27
19 23 27 32 35 38 39 41 39 39 41 46 49 50 54 52 58 61 62 66 65 64 59 55 53 52 52 52 52 52 52 50 48 45 43 40 39 37 34 32 30 30 29
15 18 22 26 32 38 37 38 40 40 41 43 50 53 56 58 60 63 65 68 63 66 66 57 54 54 53 54 57 58 56 52 49 47 46 45 44 40 36 34 32 30 28
19 19 21 24 28 33 38 40 41 42 41 44 54 55 54 58 62 67 69 71 69 69 67 59 56 56 55 58 60 59 57 55 53 50 49 49 46 41 37 35 32 27 25

GFSSE_prec_cthk_024.txt.gz
RH
45 38 34 32 29 28 29 29 26 25 27 26 26 27 29 30 30 26 21 17 14 15 14 13 28 35 40 34 27 25 22 19 18 18 18 17 15 14 12 11 13 19 20
44 41 36 32 29 27 29 28 27 27 24 27 27 27 27 28 28 25 18 11 10 9 9 15 24 28 27 27 24 21 16 13 13 14 14 14 14 13 12 14 16 17 17
46 43 39 35 30 28 29 28 26 25 24 24 27 28 27 27 27 24 15 11 10 10 10 16 20 23 23 22 20 16 13 14 16 16 16 16 16 17 15 14 14 15 16
44 43 40 38 34 33 32 31 27 24 24 23 28 29 32 27 26 19 17 15 13 11 12 14 17 19 18 15 13 13 14 17 19 19 19 20 19 20 20 19 18 17 18
44 40 38 37 36 37 38 35 32 26 25 26 30 31 30 29 24 17 18 19 18 15 13 13 13 12 13 13 15 16 21 24 26 27 25 26 26 28 28 28 28 29 29
42 39 36 36 38 40 42 39 37 31 27 27 28 30 29 25 22 21 20 20 22 23 23 23 22 22 23 24 27 28 29 31 33 32 32 31 32 32 32 30 30 30 31
40 37 37 38 40 41 43 41 38 32 31 30 29 28 27 25 26 25 24 22 20 21 25 26 27 28 29 29 28 28 29 32 33 33 33 33 34 33 30 30 36 38 38
40 39 39 40 41 43 46 41 36 32 32 34 32 32 33 32 29 28 27 27 27 28 27 28 29 29 30 29 30 30 31 32 34 34 34 34 31 29 24 29 30 33 33
44 43 42 42 43 44 44 40 37 35 35 35 38 39 40 39 39 37 34 32 30 31 33 33 32 32 33 32 32 32 32 32 32 32 32 32 30 29 26 25 26 30 33
46 51 51 51 46 44 44 43 39 38 37 37 42 41 42 42 40 41 41 38 37 37 37 36 35 35 35 35 35 34 33 32 31 30 30 30 29 28 28 28 31 33 35
44 50 55 55 52 47 45 43 41 39 38 39 43 47 44 45 43 40 40 42 42 42 43 42 42 41 39 38 37 35 32 31 30 29 29 28 28 31 32 34 33 34 31
41 47 52 53 50 48 47 45 42 40 38 38 42 47 46 45 50 49 42 38 39 41 45 46 48 46 44 42 39 33 31 30 30 29 28 28 31 31 32 30 32 31 31
41 45 46 48 51 52 50 49 45 42 40 38 40 45 47 47 47 51 50 47 46 44 40 42 45 49 49 45 39 35 34 32 30 30 28 27 32 33 31 31 26 27 26
38 40 44 47 51 52 54 53 50 45 42 39 39 42 46 46 50 54 56 49 49 49 44 43 44 44 46 43 39 35 33 29 27 27 27 28 28 28 27 25 25 25 26
35 36 38 42 44 49 54 56 54 52 46 43 40 41 45 46 49 54 55 55 53 52 54 45 45 48 45 41 38 32 31 29 27 25 26 26 25 25 25 24 24 24 24
38 35 37 38 39 41 44 47 50 52 51 45 44 45 47 49 50 51 54 61 61 53 53 49 48 49 44 40 38 33 31 31 30 27 26 26 25 25 24 24 24 22 22
31 36 37 36 38 37 36 39 40 44 47 48 49 51 54 53 54 51 51 55 58 57 56 54 51 47 43 40 38 34 32 32 34 32 29 27 26 25 25 25 25 25 24
30 30 35 41 40 40 36 37 39 43 45 47 49 51 54 55 56 54 51 54 61 62 58 56 52 46 41 39 37 34 35 34 35 37 33 29 28 28 27 27 25 24 24
29 32 33 41 46 38 38 42 43 41 44 46 50 51 52 54 56 58 57 59 61 61 59 58 55 47 45 40 38 35 34 33 34 39 39 34 31 31 30 31 31 30 29
29 32 35 36 36 49 48 48 51 52 46 45 49 52 55 56 58 59 59 59 59 58 58 59 53 50 49 46 42 37 34 34 36 40 43 43 42 42 39 37 35 33 31
23 25 30 32 33 39 52 50 49 50 49 45 47 51 53 55 57 57 58 61 63 61 62 59 52 53 51 48 46 41 38 37 39 42 44 45 46 46 43 40 38 34 32
24 23 22 22 30 32 37 46 49 45 46 46 46 50 54 57 60 58 55 59 61 61 62 61 54 53 52 51 49 46 44 42 41 42 42 44 44 44 42 40 37 35 33
26 27 28 26 30 33 35 38 50 61 57 54 54 55 58 61 63 62 62 58 60 64 64 62 53 54 55 54 52 50 48 47 48 48 47 46 45 43 42 40 37 34 31
20 23 26 28 28 32 35 39 42 43 50 50 54 56 58 64 66 62 59 59 61 63 64 63 58 58 57 56 54 55 54 53 52 50 49 47 45 45 44 42 40 37 34
15 15 20 24 26 28 31 34 39 47 51 50 50 52 52 58 66 68 68 65 66 66 63 61 64 60 58 57 56 58 58 59 58 55 52 51 50 49 48 45 42 38 33
18 17 17 19 24 27 29 32 35 42 45 48 50 52 54 56 61 68 69 68 72 72 69 67 68 63 60 57 58 58 60 61 58 56 57 57 56 56 52 50 44 37 33

GFSSE_prec_cthk_027.txt.gz
RH
44 41 42 35 30 27 27 27 26 26 25 27 28 30 30 31 32 30 24 18 13 13 15 23 30 39 33 26 24 20 19 17 18 22 25 26 23 19 15 12 12 14 16
42 41 40 37 34 29 28 29 27 29 29 28 26 28 28 27 28 25 17 12 10 12 12 26 36 35 28 26 21 18 14 13 14 15 15 16 14 13 13 14 15 15 17
45 41 38 39 38 35 31 31 28 26 28 30 28 27 28 27 25 20 15 12 10 10 14 21 21 25 25 21 20 15 13 13 14 15 15 15 16 16 15 15 15 16 17
44 42 40 39 38 36 35 33 32 29 26 30 30 29 29 27 24 15 16 15 14 12 16 20 21 21 19 16 14 13 15 16 16 17 18 19 21 22 23 22 21 22 23
45 42 40 39 37 35 36 37 35 32 28 30 31 31 30 27 23 16 17 17 18 17 16 17 17 16 13 14 15 16 19 20 23 25 25 26 27 30 30 29 30 29 29
45 42 39 38 36 35 35 39 38 36 32 31 34 33 31 28 21 19 19 19 20 21 22 22 23 22 23 24 24 28 30 30 29 29 29 31 31 35 31 29 31 40 43
44 41 40 37 36 37 36 37 38 37 33 32 35 33 30 26 24 24 24 23 22 21 22 24 26 27 27 28 29 29 28 30 31 33 33 33 34 35 29 27 34 37 38
41 41 40 38 37 39 39 36 37 34 32 32 31 31 30 31 32 30 29 28 28 29 29 30 29 30 30 30 30 30 31 32 33 34 34 35 34 31 28 26 26 31 35
39 40 39 39 40 42 42 39 38 37 34 34 34 34 35 33 31 33 35 34 34 33 34 33 34 33 33 33 32 32 33 34 34 33 33 33 32 31 29 28 28 31 31
38 43 40 41 43 43 43 42 40 39 37 37 37 41 45 40 37 34 35 38 39 40 44 42 40 40 38 36 35 33 33 33 32 32 31 32 31 30 29 30 37 40 36
36 42 48 52 52 48 46 44 43 40 40 39 39 41 46 46 41 42 40 36 37 40 42 43 45 46 44 42 42 39 35 33 32 32 31 31 31 34 40 37 39 39 35
35 38 46 54 57 57 49 46 44 41 40 41 42 41 44 46 45 44 46 46 42 42 42 41 43 45 47 48 46 40 35 33 32 31 30 29 34 38 39 39 39 35 32
34 38 41 48 55 54 50 47 45 43 42 42 43 43 43 46 48 48 49 50 50 47 48 48 43 43 44 43 42 41 38 36 33 30 28 32 34 35 36 35 32 30 28
29 33 38 42 46 49 49 49 49 48 45 43 43 44 43 45 47 48 49 54 56 52 50 49 51 45 45 45 40 38 36 31 29 27 25 26 28 29 27 27 27 27 26
32 33 33 38 41 44 47 51 53 52 49 46 44 44 42 44 47 49 50 52 55 54 57 56 50 48 46 42 39 36 33 31 28 28 29 27 26 27 27 26 26 26 24
36 36 37 35 37 40 43 46 49 53 55 50 45 43 43 45 47 52 54 53 52 54 60 58 51 51 51 42 38 36 33 31 30 29 31 31 29 28 28 27 26 25 24
37 37 37 40 41 40 40 40 43 46 48 50 49 45 43 45 48 53 56 54 55 56 60 60 55 57 52 43 39 36 33 31 30 31 31 33 33 32 29 27 27 26 24
37 36 33 36 42 43 44 44 42 42 43 43 42 45 46 49 54 60 59 56 60 58 60 62 60 60 52 46 44 40 38 35 32 30 31 32 35 36 33 29 29 29 30
33 35 33 32 34 37 42 52 50 47 44 43 46 48 50 54 60 63 62 59 59 62 65 62 59 58 51 48 47 45 43 39 35 33 33 34 36 39 40 40 37 36 37
29 34 36 36 34 36 39 47 55 51 49 50 51 49 50 52 55 58 61 61 63 64 63 61 60 59 51 50 50 47 44 42 40 39 38 37 38 41 43 42 41 40 39
21 24 32 34 37 35 40 44 52 55 54 56 58 54 51 51 56 58 61 59 60 62 63 62 61 58 50 51 50 48 47 46 44 44 45 43 42 42 41 41 40 40 39
22 21 24 30 35 38 37 38 40 44 51 56 56 55 52 48 50 53 57 58 60 60 59 58 58 55 51 49 48 48 48 48 47 48 48 47 48 48 46 44 42 41 39
26 25 26 27 28 32 38 37 41 47 46 47 54 56 55 57 59 57 58 60 65 65 63 58 60 58 52 50 50 50 51 50 50 52 51 50 51 49 47 46 44 43 42
22 27 29 30 31 30 30 32 39 41 44 48 53 62 66 67 67 68 66 66 70 67 66 63 61 59 55 53 54 54 53 53 55 54 54 54 53 51 50 50 49 47 44
16 18 20 23 27 29 30 30 33 38 42 45 49 51 59 65 70 70 72 73 73 73 71 74 66 60 61 59 58 56 55 54 56 58 57 57 55 55 56 55 51 46 42
16 16 17 17 18 23 26 29 30 35 42 46 51 56 61 63 65 65 68 66 72 76 75 81 74 65 62 66 63 59 57 56 58 59 61 60 59 60 60 57 52 49 46

GFSSE_prec_cthk_030.txt.gz
RH
37 40 43 42 37 32 28 30 29 30 31 31 31 31 32 35 36 35 29 23 18 13 15 25 34 30 25 23 20 18 19 21 26 27 27 26 26 23 19 14 13 15 16
38 41 42 39 39 36 31 29 31 29 30 31 31 30 29 29 29 29 23 15 11 14 33 37 38 38 27 22 19 16 13 14 16 17 18 18 16 13 13 13 14 15 18
41 39 40 37 38 43 37 38 35 33 31 30 30 29 29 28 25 19 13 13 12 14 28 30 31 22 24 21 17 13 12 13 14 15 15 15 15 15 14 15 17 18 19
43 40 39 37 37 38 37 37 40 38 35 32 31 30 30 27 21 14 14 14 14 19 23 21 22 23 20 16 13 13 15 16 17 16 16 18 22 23 22 22 22 23 24
44 40 40 38 37 37 34 33 37 41 38 35 33 31 30 27 20 16 15 16 17 20 23 23 21 19 15 15 16 18 21 22 24 26 28 28 29 31 29 29 28 29 28
41 41 41 40 38 37 33 30 33 36 37 39 35 32 31 28 22 21 19 18 17 18 20 22 22 22 24 24 23 25 27 29 30 29 30 31 33 36 31 30 37 39 43
42 41 40 38 37 37 35 33 33 34 34 38 36 35 32 29 27 25 25 25 24 24 22 22 24 27 28 29 29 29 29 30 31 32 33 33 33 32 29 30 34 36 36
39 40 38 38 36 37 36 34 34 35 33 33 36 35 31 29 29 30 30 30 30 29 29 30 30 30 31 32 32 32 32 32 34 35 35 34 34 32 30 28 28 36 36
33 37 38 37 37 38 37 36 36 36 36 34 34 34 35 33 33 31 34 36 36 36 37 37 39 37 36 34 33 33 33 34 34 34 33 33 32 31 29 29 30 36 35
31 34 36 36 37 39 39 39 38 38 38 36 34 33 37 40 38 36 36 34 37 41 43 44 41 41 41 40 39 38 36 34 32 31 31 32 32 31 33 39 43 43 41
32 33 36 37 38 39 40 42 41 41 41 39 39 38 39 43 43 40 40 41 39 41 42 41 40 42 43 44 45 42 37 34 33 32 31 31 33 39 43 40 42 38 37
33 35 35 40 44 46 48 46 49 44 42 43 42 43 43 43 45 44 44 44 46 46 46 46 45 43 42 42 42 41 39 37 35 33 31 31 37 39 37 38 35 33 34
37 36 36 38 46 52 54 55 50 47 43 43 44 46 46 44 45 48 47 47 48 49 49 47 49 49 47 44 42 38 35 34 31 28 28 34 34 33 31 31 30 28 25
29 34 39 41 43 49 54 54 52 47 45 45 47 48 48 47 47 49 49 50 48 50 53 53 53 49 48 48 42 37 35 32 29 28 27 29 32 33 27 24 24 26 25
32 30 33 38 40 45 50 53 52 49 48 49 46 46 48 48 46 48 51 53 53 50 51 53 54 56 53 50 45 38 34 30 28 27 27 28 29 32 30 27 26 27 27
32 32 35 35 38 43 45 47 49 51 53 52 48 47 48 48 45 45 49 53 55 52 50 53 55 55 52 52 48 40 37 33 30 28 27 27 27 29 32 30 28 29 28
35 34 36 37 41 40 43 44 46 49 49 49 51 49 45 45 46 44 47 52 54 53 53 57 58 57 57 56 48 42 40 37 36 34 32 29 28 29 30 32 32 32 29
28 34 38 41 42 41 39 45 48 48 47 45 47 47 45 43 43 44 47 52 56 57 56 59 59 59 60 56 47 44 42 41 40 37 35 33 31 31 32 32 35 37 38
27 30 35 39 43 40 36 39 47 53 56 55 51 46 45 44 46 47 50 57 61 59 60 63 63 61 60 54 47 46 44 44 41 38 37 36 36 36 35 34 35 37 39
26 28 30 31 32 32 30 33 42 47 52 56 57 55 52 51 52 52 57 61 60 59 62 65 65 60 59 54 48 45 45 43 40 41 41 41 40 40 41 40 37 37 37
21 25 27 30 30 31 32 32 35 38 46 53 57 62 59 60 57 56 58 66 62 62 62 64 64 60 57 52 48 46 44 42 41 41 42 44 45 45 44 43 42 41 40
21 22 23 26 31 33 34 35 35 38 43 47 56 61 61 63 66 65 60 57 62 62 62 61 62 60 56 50 48 47 44 44 44 44 44 47 48 49 48 47 47 45 45
22 24 25 25 25 27 28 33 35 38 38 40 44 49 55 64 68 68 65 60 57 59 61 63 67 67 62 53 48 46 46 46 47 48 47 48 50 50 51 50 49 48 49
18 21 25 28 29 29 28 27 31 35 35 37 42 47 50 52 61 68 70 70 71 67 69 70 71 71 65 59 52 51 50 50 50 52 50 50 51 51 51 51 51 51 51
18 18 19 25 29 32 33 34 34 32 32 35 38 46 51 54 58 71 81 82 81 82 82 80 80 76 74 67 64 58 55 55 56 56 53 54 54 54 55 54 53 53 52
17 18 18 19 20 22 24 26 29 35 36 35 37 41 46 52 57 63 65 74 77 79 81 84 86 83 79 80 70 70 65 61 61 60 58 57 58 58 58 58 57 56 54

GFSSE_prec_cthk_033.txt.gz
RH
31 35 42 42 40 36 32 27 27 28 32 35 35 34 33 33 33 34 31 27 21 14 21 30 34 27 25 20 19 19 21 26 28 28 29 29 26 24 20 14 13 14 16
30 36 44 44 42 39 36 32 31 29 29 33 34 32 31 32 31 28 25 19 13 28 34 39 37 32 22 19 17 15 13 17 21 22 23 22 19 14 13 13 13 15 18
37 36 42 44 43 42 41 38 36 34 32 31 30 30 28 28 26 22 15 14 16 31 37 40 31 25 21 18 15 12 13 14 15 16 16 15 15 15 16 18 19 20 20
38 38 36 41 40 41 42 38 39 39 37 33 31 30 28 27 22 15 13 14 16 27 31 31 27 20 17 13 12 13 15 16 16 16 16 17 20 22 23 24 24 24 25
40 38 36 38 38 36 38 38 36 39 39 36 31 31 29 26 19 18 16 15 17 24 26 25 25 23 18 17 17 20 22 23 23 24 26 26 28 29 27 29 31 33 32
40 37 37 37 36 35 35 33 30 35 38 34 33 32 29 25 22 21 19 19 18 21 23 24 23 22 24 24 25 25 26 27 28 29 29 31 33 37 29 35 38 42 43
39 37 35 37 36 35 34 32 30 30 37 34 34 32 30 25 26 24 23 23 23 24 25 24 25 26 28 28 29 29 29 29 30 31 31 32 32 32 28 31 31 36 38
41 41 39 38 36 35 34 33 31 32 33 36 35 34 31 26 26 29 30 30 30 31 31 32 32 31 31 31 31 31 32 32 32 33 33 33 32 31 30 29 29 35 36
36 39 39 38 38 37 36 34 33 34 36 40 37 36 30 33 31 30 31 34 35 37 39 40 40 38 37 35 34 34 33 32 31 30 31 31 31 30 30 31 36 36 34
33 35 37 38 38 39 38 36 36 36 36 38 38 33 31 35 37 36 37 37 36 39 42 44 41 41 40 39 39 38 36 34 32 32 32 31 30 33 42 44 43 40 37
33 33 34 35 39 40 39 39 38 38 39 40 40 37 33 34 39 40 39 38 42 46 47 45 43 40 38 39 40 40 37 35 34 33 32 30 35 41 42 42 40 37 34
35 35 34 37 38 39 40 42 42 43 43 44 42 40 40 38 36 41 42 41 42 48 48 47 46 46 46 44 40 37 33 31 31 29 27 33 38 36 33 31 29 28 26
34 36 36 35 38 44 47 48 47 49 48 47 44 43 45 45 42 41 42 44 43 45 47 51 50 48 48 47 45 39 34 32 29 27 29 34 34 32 31 29 27 26 23
33 34 37 38 39 42 49 52 53 54 55 48 46 44 45 49 48 46 44 44 45 45 44 48 53 52 52 51 48 43 38 32 28 27 27 33 33 30 28 26 25 24 23
32 32 32 35 40 42 45 49 54 55 55 52 47 45 46 48 49 49 46 45 47 48 48 47 48 51 51 53 52 45 39 34 30 28 28 27 28 27 25 25 27 26 26
32 32 34 32 34 40 43 46 53 53 56 54 50 47 46 47 48 49 48 45 47 48 49 49 49 51 52 52 53 47 42 37 34 32 32 31 30 28 28 27 28 28 29
31 33 33 33 35 34 38 44 47 49 51 53 56 56 50 46 47 48 47 45 46 48 49 51 52 53 54 54 55 49 43 39 37 36 35 33 33 32 31 30 29 30 30
28 28 30 32 32 33 34 38 43 48 50 50 50 53 55 49 47 47 46 45 46 49 50 53 55 56 56 56 55 48 42 40 39 38 36 34 34 34 32 32 32 31 32
28 27 25 26 30 31 34 38 43 43 49 51 50 52 54 52 51 46 45 45 48 52 54 55 56 57 58 60 56 47 43 41 39 38 35 33 33 34 34 35 35 36 35
24 24 24 25 27 32 33 40 47 44 43 47 49 51 55 57 58 54 48 50 51 55 60 59 57 58 61 61 55 48 44 41 40 38 35 35 35 36 37 38 40 40 39
21 22 23 23 24 28 32 33 32 34 35 38 41 48 53 57 59 60 58 58 57 62 67 61 60 62 62 59 55 48 44 41 39 38 36 36 39 40 39 41 42 43 43
18 18 19 21 22 24 27 30 31 33 33 34 38 44 49 54 58 63 65 65 66 70 66 67 65 64 63 60 56 50 43 43 41 39 39 39 41 43 43 43 43 44 44
19 19 19 19 21 22 23 26 27 31 32 34 35 37 45 50 55 61 64 71 74 75 69 65 63 62 63 63 61 56 49 44 43 43 43 43 44 46 46 46 47 47 47
18 18 18 19 22 24 25 24 24 24 26 29 32 35 41 48 51 59 60 66 75 80 76 68 67 63 65 67 66 62 56 54 51 50 49 48 48 50 50 50 50 50 50
18 18 17 17 18 25 28 29 30 29 28 28 29 33 37 42 49 56 61 62 65 73 79 78 78 79 83 79 76 73 67 64 63 60 58 57 55 55 54 53 52 53 53
19 18 18 18 17 20 25 28 29 30 31 32 34 36 37 38 44 52 63 64 65 69 84 86 88 90 90 90 91 86 78 76 71 67 65 67 65 62 59 58 57 57 57

GFSSE_prec_cthk_039.txt.gz
RH
34 26 28 36 37 36 33 30 31 33 31 31 32 32 33 31 31 30 28 23 16 20 34 27 23 20 26 20 21 26 28 32 32 37 36 30 25 22 16 13 19 19 14
33 27 31 37 36 36 33 32 32 34 36 33 33 30 30 29 29 27 22 16 26 34 37 32 21 16 16 17 17 17 20 23 26 25 24 23 18 14 12 13 15 16 17
34 33 34 41 41 38 35 36 32 34 38 37 31 31 28 27 24 20 14 22 36 40 42 30 24 16 13 12 11 12 14 16 18 18 21 23 15 14 15 18 20 20 20
41 38 41 43 44 41 39 39 36 32 36 33 29 29 26 24 20 14 14 31 34 40 36 29 24 16 11 11 12 13 13 13 14 19 29 30 25 20 24 26 26 26 26
47 42 43 39 43 42 41 39 38 35 33 30 29 27 23 20 16 15 16 26 30 34 35 30 23 17 15 16 18 19 20 19 21 26 30 30 34 26 30 33 35 38 39
50 48 43 37 43 43 43 41 40 39 33 30 28 25 22 19 17 16 16 18 22 26 26 24 21 21 21 24 25 26 26 26 29 32 35 32 35 30 29 34 35 41 48
51 49 43 41 45 44 43 42 41 43 37 33 29 28 25 20 20 20 20 20 20 23 23 22 22 23 24 26 27 28 28 29 34 35 37 37 29 27 27 30 36 38 41
51 48 46 44 45 44 43 43 41 42 42 36 33 29 26 25 23 23 24 26 27 26 26 26 27 28 28 28 28 28 28 29 39 36 33 32 27 27 28 30 31 34 36
48 47 46 41 43 40 42 43 39 39 41 40 36 33 26 26 28 28 28 28 28 29 31 32 33 32 33 33 33 33 33 33 36 34 33 35 29 27 30 40 39 37 34
44 46 46 43 40 37 36 37 37 37 39 41 39 36 32 27 28 32 32 32 32 34 36 38 35 34 33 32 32 32 33 34 37 33 33 31 30 41 45 42 38 34 33
40 42 45 45 44 43 42 37 37 35 37 42 42 41 32 34 30 31 33 34 34 36 39 38 37 38 38 37 36 34 31 32 32 32 33 33 39 41 37 36 34 32 28
37 39 41 42 42 42 43 43 38 43 42 43 44 44 41 44 41 38 35 33 34 37 40 41 40 41 42 42 42 40 38 36 34 32 34 33 34 33 33 31 28 26 24
32 34 37 38 38 38 40 44 45 45 46 46 45 45 45 47 48 43 40 35 34 38 40 40 41 41 42 45 45 44 43 41 40 37 37 37 34 30 26 24 21 21 21
32 31 32 36 37 37 39 41 44 45 46 48 48 46 46 51 50 48 46 45 43 43 43 42 42 43 41 43 45 46 45 45 45 46 41 38 36 32 30 28 23 23 23
33 31 29 31 36 39 39 41 46 50 51 52 51 50 50 53 55 52 50 47 48 49 47 44 42 43 44 45 46 47 45 45 44 46 44 39 39 38 35 27 25 25 25
32 32 32 32 35 39 35 39 43 46 48 50 52 54 53 50 55 55 57 53 48 50 50 49 46 42 42 44 46 48 49 47 47 46 45 37 38 37 33 27 26 26 25
38 36 33 33 31 30 31 32 37 43 45 43 45 48 53 53 53 55 58 56 54 54 53 51 51 46 42 43 45 48 50 52 49 47 46 41 35 33 31 29 28 27 27
27 29 36 38 33 33 33 32 30 34 40 42 44 48 50 53 56 59 59 57 56 57 58 55 52 48 44 44 45 47 52 54 52 49 46 42 39 34 32 30 29 29 29
23 26 28 32 36 35 34 35 32 33 36 40 43 47 49 53 57 60 61 62 62 63 62 61 55 50 47 46 47 49 52 55 53 51 46 41 40 38 34 30 29 30 31
19 22 24 27 29 33 35 38 32 30 31 35 39 41 42 46 49 53 58 62 61 60 62 64 63 57 52 49 50 51 53 56 55 51 46 42 39 36 33 31 31 31 32
16 18 20 23 27 27 30 33 31 26 25 27 32 35 48 47 49 48 52 54 56 58 56 60 60 58 59 57 55 56 56 59 56 52 47 44 41 37 33 33 32 33 34
16 17 17 18 20 21 23 24 28 26 23 25 27 30 37 38 45 49 47 51 54 55 59 60 61 61 62 65 65 65 62 61 62 55 50 46 44 44 40 37 36 38 39
18 16 16 17 17 18 18 19 21 29 30 27 24 25 28 36 42 48 49 50 53 56 56 60 64 63 64 69 74 72 70 67 63 56 53 50 48 48 47 44 43 45 46
19 17 16 16 17 18 20 21 21 23 28 29 29 28 28 32 36 45 50 50 52 53 54 52 59 69 72 74 79 78 78 75 71 63 58 54 54 55 53 53 53 53 54
20 18 17 16 16 16 17 18 21 24 28 34 35 34 33 32 31 36 45 48 49 52 56 59 62 63 69 73 76 79 84 83 80 74 69 68 70 70 68 68 68 64 62
23 21 19 19 19 18 17 17 17 18 23 31 35 37 38 38 38 36 37 45 47 49 54 58 64 65 70 75 76 77 81 84 83 83 81 80 80 81 79 77 76 73 69